FW8325 Weather Reports


Display with metric or nautical units.
time (UTC)temp
F
wind
direction
speed
MPH
gust
MPH
rain 1hr
in
rain 24hr
in
rain mn
in
humidity
%
barometer
mb
20260901140621 56 263 0.0 0.0 0.00 0.16 0.00 81 1019.0
20260901135611 54 262 0.0 0.0 0.00 0.16 0.00 82 1019.0
20260901134619 53 263 0.0 0.0 0.00 0.16 0.00 81 1019.0
20260901133626 53 271 0.0 0.0 0.00 0.16 0.00 82 1018.9
20260901132617 53 274 0.0 0.0 0.00 0.16 0.00 82 1018.9
20260901131625 53 275 0.0 0.0 0.00 0.16 0.00 82 1018.9
20260901130632 54 269 0.0 0.0 0.00 0.16 0.00 83 1018.9
20260901125621 54 264 0.0 0.0 0.00 0.16 0.00 83 1018.8
20260901124648 54 269 0.0 0.0 0.00 0.16 0.00 83 1018.6
20260901123618 55 263 0.0 0.0 0.00 0.16 0.00 82 1018.6
20260901122625 55 274 0.0 0.0 0.00 0.16 0.00 82 1018.6
20260901121614 56 284 0.0 0.0 0.00 0.16 0.00 82 1018.7
20260901120619 56 264 0.0 0.0 0.00 0.16 0.00 82 1018.6
20260901115614 56 269 0.0 0.0 0.00 0.16 0.00 81 1018.4
20260901114642 56 269 0.0 0.0 0.00 0.16 0.00 81 1018.5
20260901113628 56 271 0.0 0.0 0.00 0.16 0.00 82 1018.4
20260901112617 56 273 0.0 0.0 0.00 0.16 0.00 81 1018.4
20260901111628 56 261 0.0 0.0 0.00 0.16 0.00 81 1018.4
20260901110615 56 263 0.0 0.0 0.00 0.16 0.00 82 1018.4
20260901105625 57 263 0.0 0.0 0.00 0.16 0.00 80 1018.4
20260901104613 57 260 0.0 0.0 0.00 0.16 0.00 78 1018.4
20260901103623 56 265 0.0 0.0 0.00 0.16 0.00 80 1018.5
20260901102630 57 266 0.0 0.0 0.00 0.16 0.00 78 1018.4
20260901101618 57 260 0.0 0.0 0.00 0.16 0.00 76 1018.5
20260901100644 57 234 0.0 0.0 0.00 0.16 0.00 78 1018.6
20260901095633 57 234 0.0 0.0 0.00 0.16 0.00 78 1018.5
20260901094623 57 262 0.0 0.0 0.00 0.16 0.00 78 1018.4
20260901093628 58 230 0.0 0.0 0.00 0.16 0.00 75 1018.3
20260901092615 58 230 0.0 0.0 0.00 0.16 0.00 74 1018.5
20260901091623 58 205 0.0 0.0 0.00 0.16 0.00 77 1018.4
20260901090613 59 202 0.0 0.0 0.00 0.16 0.00 74 1018.2
20260901085622 60 215 0.0 0.0 0.00 0.16 0.00 72 1018.2
20260901084629 61 306 0.0 0.0 0.00 0.16 0.00 69 1018.0
20260901083616 61 326 0.0 0.0 0.00 0.16 0.00 67 1018.0
20260901082628 61 319 0.0 1.0 0.00 0.16 0.00 68 1018.0
20260901081614 60 284 0.0 0.0 0.00 0.16 0.00 68 1018.1
20260901080639 60 306 0.0 0.0 0.00 0.16 0.00 66 1018.3
20260901075625 60 231 0.0 0.0 0.00 0.16 0.00 66 1018.2
20260901074611 61 155 0.0 0.0 0.00 0.16 0.00 69 1018.1
20260901073623 60 149 0.0 1.0 0.00 0.16 0.00 66 1018.2
20260901072611 61 161 0.0 2.0 0.00 0.16 0.00 66 1018.1
20260901071618 61 164 0.0 2.0 0.00 0.16 0.00 67 1018.0
20260901070625 62 166 0.0 1.0 0.00 0.16 0.00 63 1018.0
20260901065618 62 157 0.0 2.0 0.00 0.16 0.00 62 1018.0
20260901064625 61 143 0.0 0.0 0.00 0.16 0.00 67 1018.0
20260901063632 60 221 0.0 0.0 0.00 0.16 0.00 68 1018.1
20260901062618 59 221 0.0 0.0 0.00 0.16 0.00 68 1018.0
20260901061629 59 238 0.0 0.0 0.00 0.16 0.00 66 1018.3
20260901060630 59 277 0.0 0.0 0.00 0.16 0.00 69 1018.5
20260901055640 59 281 0.0 0.0 0.00 0.16 0.16 70 1018.6
20260901054646 59 215 0.0 0.0 0.00 0.16 0.16 69 1018.9
20260901053613 59 210 0.0 0.0 0.00 0.16 0.16 69 1019.1
20260901052620 59 208 0.0 1.0 0.00 0.16 0.16 70 1019.4
20260901051611 60 204 0.0 5.0 0.00 0.16 0.16 69 1019.5
20260901050618 61 207 1.0 6.0 0.00 0.16 0.16 65 1019.6
20260901045626 62 157 1.0 7.0 0.00 0.16 0.16 64 1019.6
20260901044613 62 142 4.0 11.0 0.00 0.16 0.16 64 1019.5
20260901043625 62 148 1.0 5.0 0.00 0.16 0.16 68 1019.5
20260901042612 62 159 1.0 7.0 0.00 0.16 0.16 65 1019.4
20260901041621 63 148 1.0 7.0 0.01 0.16 0.16 60 1019.4
20260901040647 62 167 1.0 7.0 0.01 0.16 0.16 67 1019.3
20260901035638 62 155 1.0 6.0 0.01 0.16 0.16 66 1019.4
20260901034625 62 165 0.0 10.0 0.01 0.16 0.16 64 1019.4
20260901033613 62 211 2.0 6.0 0.01 0.16 0.16 67 1019.4
20260901032621 63 213 2.0 11.0 0.01 0.16 0.16 59 1019.3
20260901031625 62 148 1.0 6.0 0.00 0.15 0.15 60 1019.3
20260901030611 62 219 2.0 9.0 0.00 0.15 0.15 59 1019.0
20260901025618 63 225 1.0 4.0 0.00 0.15 0.15 61 1018.9
20260901024623 63 219 1.0 6.0 0.00 0.15 0.15 59 1018.8
20260901023649 61 225 2.0 7.0 0.00 0.15 0.15 66 1018.7
20260901022619 61 219 1.0 3.0 0.00 0.15 0.15 66 1018.7
20260901021625 62 225 1.0 6.0 0.00 0.15 0.15 66 1018.5
20260901020611 61 206 0.0 7.0 0.00 0.15 0.15 69 1018.6
20260901015638 60 179 0.0 0.0 0.00 0.15 0.15 75 1018.6
20260901014623 60 219 0.0 0.0 0.00 0.15 0.15 75 1018.5
20260901013651 60 244 0.0 0.0 0.00 0.15 0.15 74 1018.7
20260901012614 61 267 0.0 0.0 0.00 0.15 0.15 75 1018.7
20260901011618 61 252 0.0 0.0 0.00 0.15 0.15 74 1018.6
20260901010623 62 269 0.0 0.0 0.00 0.15 0.15 72 1018.7
20260901005613 62 265 0.0 0.0 0.00 0.15 0.15 73 1018.7
20260901004621 62 250 0.0 0.0 0.03 0.15 0.15 69 1018.6
20260901003628 61 219 0.0 0.0 0.03 0.15 0.15 77 1018.8
20260901002616 62 224 0.0 2.0 0.03 0.15 0.15 77 1019.0
20260901001628 61 213 0.0 0.0 0.03 0.15 0.15 73 1019.1
20260901000611 61 239 0.0 0.0 0.03 0.15 0.15 78 1019.2
20260831235621 61 266 0.0 1.0 0.03 0.15 0.15 75 1019.2
20260831234629 62 304 0.0 0.0 0.00 0.12 0.12 70 1019.2
20260831233618 64 152 0.0 7.0 0.00 0.12 0.12 65 1019.6
20260831232611 66 112 4.0 10.0 0.00 0.12 0.12 57 1019.6
20260831231618 66 175 0.0 2.0 0.00 0.12 0.12 61 1019.2
20260831230625 66 148 0.0 2.0 0.00 0.12 0.12 61 1019.2
20260831225611 66 134 1.0 4.0 0.01 0.12 0.12 69 1019.1
20260831224622 65 292 0.0 0.0 0.02 0.12 0.12 68 1018.6
20260831223629 64 307 0.0 0.0 0.07 0.12 0.12 70 1018.1
20260831222614 64 336 0.0 0.0 0.11 0.12 0.12 73 1017.9
20260831221620 63 266 0.0 0.0 0.12 0.12 0.12 75 1018.0
20260831220629 62 271 0.0 1.0 0.12 0.12 0.12 78 1018.0
20260831215618 62 348 0.0 0.0 0.11 0.11 0.11 77 1018.0
20260831214627 65 242 0.0 3.0 0.10 0.10 0.10 60 1018.1
20260831213613 66 108 0.0 0.0 0.05 0.05 0.05 62 1018.3
20260831212625 67 74 0.0 0.0 0.01 0.01 0.01 60 1018.4
20260831211613 66 230 0.0 0.0 0.00 0.00 0.00 56 1018.3
20260831210620 66 189 0.0 1.0 0.00 0.00 0.00 64 1018.2
20260831205627 67 198 0.0 0.0 0.00 0.00 0.00 59 1018.0
20260831204616 67 37 0.0 0.0 0.00 0.00 0.00 59 1017.8
20260831203624 68 31 0.0 0.0 0.00 0.00 0.00 55 1018.0
20260831202629 68 34 0.0 0.0 0.00 0.00 0.00 56 1018.2
20260831201616 68 22 0.0 0.0 0.00 0.00 0.00 54 1018.2
20260831200626 69 26 0.0 0.0 0.00 0.00 0.00 55 1018.4
20260831195615 68 42 0.0 0.0 0.00 0.00 0.00 57 1018.4
20260831194622 67 61 0.0 0.0 0.00 0.00 0.00 58 1018.6
20260831193630 67 64 0.0 0.0 0.00 0.00 0.00 57 1018.7
20260831192621 66 69 0.0 0.0 0.00 0.00 0.00 60 1018.9
20260831191648 66 72 0.0 0.0 0.00 0.00 0.00 59 1019.1
20260831190615 66 67 0.0 0.0 0.00 0.00 0.00 58 1019.3
20260831185624 65 76 0.0 0.0 0.00 0.00 0.00 59 1019.4
20260831184629 65 72 0.0 0.0 0.00 0.00 0.00 57 1019.6
20260831183640 64 70 0.0 0.0 0.00 0.00 0.00 59 1019.8
20260831182645 64 75 0.0 0.0 0.00 0.00 0.00 60 1020.1
20260831181611 64 80 0.0 0.0 0.00 0.00 0.00 60 1020.2
20260831180630 64 68 0.0 0.0 0.00 0.00 0.00 61 1020.2
20260831175615 63 78 0.0 0.0 0.00 0.00 0.00 61 1020.3
20260831174625 63 61 0.0 0.0 0.00 0.00 0.00 61 1020.3
20260831173630 63 58 0.0 0.0 0.00 0.00 0.00 62 1020.5
20260831172618 62 57 0.0 0.0 0.00 0.00 0.00 64 1020.5
20260831171645 62 72 0.0 0.0 0.00 0.00 0.00 63 1020.6
20260831170616 62 71 0.0 0.0 0.00 0.00 0.00 62 1020.5
20260831165645 62 100 0.0 0.0 0.00 0.00 0.00 63 1020.6
20260831164630 61 100 0.0 0.0 0.00 0.00 0.00 66 1020.7
20260831163617 60 99 0.0 1.0 0.00 0.00 0.00 66 1020.7
20260831162623 60 110 0.0 0.0 0.00 0.00 0.00 65 1020.7
20260831161613 60 113 0.0 0.0 0.00 0.00 0.00 64 1020.6
20260831160617 60 113 0.0 0.0 0.00 0.00 0.00 66 1020.8
20260831155622 59 178 0.0 0.0 0.00 0.00 0.00 66 1020.9
20260831154628 59 179 0.0 0.0 0.00 0.00 0.00 67 1021.0
20260831153619 59 191 0.0 0.0 0.00 0.00 0.00 68 1021.1
20260831152645 60 192 0.0 0.0 0.00 0.00 0.00 67 1021.2
20260831151630 62 216 0.0 0.0 0.00 0.00 0.00 63 1021.2
20260831150616 60 217 0.0 0.0 0.00 0.00 0.00 67 1021.2
20260831145624 59 217 0.0 0.0 0.00 0.00 0.00 67 1021.1
20260831144614 58 219 0.0 0.0 0.00 0.00 0.00 68 1021.1
20260831143622 58 265 0.0 0.0 0.00 0.00 0.00 68 1021.1
20260831142629 56 269 0.0 0.0 0.00 0.00 0.00 72 1021.1
20260831141618 55 269 0.0 0.0 0.00 0.00 0.00 72 1021.0